Weather History for KF46

Nearest airport to NA, NA.

See history from more local stations
Change the Weather History Date:

Friday, May 3, 2013

  Actual Average (KDFW) Record (KDFW)
Temperature  
Mean Temperature 52 °F 70 °F  
Max Temperature 66 °F 80 °F 97 °F (1920)
Min Temperature 39 °F 60 °F 39 °F (2013)
Degree Days  
Heating Degree Days 13 1  
Month to date heating degree days 3  
Since 1 July heating degree days 2279  
Cooling Degree Days 0 6  
Month to date cooling degree days 17  
Year to date cooling degree days 155  
Growing Degree Days 2 (Base 50)    
Moisture  
Dew Point 31 °F    
Average Humidity 49    
Maximum Humidity 81    
Minimum Humidity 23    
Precipitation  
Precipitation 0.00 in 0.16 in 1.99 in (1979)
Month to date precipitation 0.46  
Year to date precipitation 11.81  
Sea Level Pressure  
Sea Level Pressure 30.17 in    
Wind  
Wind Speed 15 mph (NNW)    
Max Wind Speed 25 mph    
Max Gust Speed 37 mph    
Visibility 10 miles    
Events      
T = Trace of Precipitation, MM = Missing Value Source: NWS Daily Summary

Daily Weather History Graph

Daily Weather History Graph

Search for Another Location

Airport or City:

Trip Planner

Search our weather history database for the weather conditions in past years. The results will help you decide how hot, cold, wet, or windy it might be!

Date:

Astronomy

May. 03, 2013 Rise Set
Actual Time 6:36 AM CDT 8:09 PM CDT
Civil Twilight 6:09 AM CDT 8:35 PM CDT
Nautical Twilight 5:38 AM CDT 9:07 PM CDT
Astronomical Twilight 5:04 AM CDT 9:41 PM CDT
Moon 2:41 AM CDT (5/3) 2:23 PM CDT (5/3)
Length of Visible Light 14h 26m
Length of Day
13h 33m
Last Quarter, 37% of the Moon is Illuminated
May 3
Last Quarter
May 9
New
May 17
First Quarter
May 24
Full
May 31
Last Quarter

Hourly Weather History & Observations

Time (CDT) Temp. Windchill Dew Point Humidity Pressure Visibility Wind Dir Wind Speed Gust Speed Precip Events Conditions
12:15 AM 43.9 °F 36.5 °F 34.9 °F 71% 30.28 in 10.0 mi North 16.1 mph 33.4 mph N/A   Overcast
12:35 AM 44.1 °F 36.2 °F 35.6 °F 72% 30.28 in 10.0 mi NNW 18.4 mph 25.3 mph N/A   Overcast
12:55 AM 44.1 °F 36.2 °F 35.8 °F 73% 30.28 in 10.0 mi NNW 18.4 mph 28.8 mph N/A   Overcast
1:15 AM 44.2 °F 35.7 °F 34.9 °F 70% 30.28 in 10.0 mi NNW 21.9 mph 34.5 mph N/A   Overcast
1:35 AM 44.1 °F 34.8 °F 35.1 °F 71% 30.28 in 10.0 mi NNW 25.3 mph 31.1 mph N/A   Overcast
1:55 AM 43.9 °F 35.0 °F 35.1 °F 71% 30.26 in 10.0 mi NNW 23.0 mph 31.1 mph N/A   Overcast
2:15 AM 43.9 °F 35.7 °F 35.1 °F 71% 30.26 in 10.0 mi NNW 19.6 mph 36.8 mph N/A   Overcast
2:35 AM 43.7 °F 36.0 °F 35.1 °F 72% 30.25 in 10.0 mi NNW 17.3 mph 33.4 mph N/A   Overcast
2:55 AM 43.3 °F 36.5 °F 34.9 °F 72% 30.25 in 10.0 mi North 13.8 mph 31.1 mph N/A   Mostly Cloudy
3:15 AM 43.3 °F 34.5 °F 34.0 °F 70% 30.25 in 10.0 mi North 21.9 mph 33.4 mph N/A   Mostly Cloudy
3:35 AM 42.6 °F 34.9 °F 34.5 °F 73% 30.25 in 10.0 mi NNW 16.1 mph 21.9 mph N/A   Overcast
3:55 AM 42.1 °F 33.9 °F 34.2 °F 74% 30.25 in 10.0 mi NNW 17.3 mph 23.0 mph N/A   Overcast
4:15 AM 41.5 °F 33.5 °F 33.8 °F 74% 30.25 in 10.0 mi NNW 16.1 mph 25.3 mph N/A   Mostly Cloudy
4:35 AM 41.0 °F 34.3 °F 33.8 °F 76% 30.25 in 10.0 mi NNW 11.5 mph 19.6 mph N/A   Scattered Clouds
4:55 AM 40.1 °F 33.6 °F 33.8 °F 78% 30.25 in 10.0 mi NNW 10.4 mph - N/A   Scattered Clouds
5:15 AM 39.7 °F 31.9 °F 34.0 °F 80% 30.25 in 10.0 mi NNW 13.8 mph - N/A   Clear
5:35 AM 39.4 °F 31.8 °F 34.0 °F 81% 30.25 in 10.0 mi NNW 12.7 mph 16.1 mph N/A   Clear
5:55 AM 39.2 °F 31.6 °F 33.8 °F 81% 30.26 in 10.0 mi NNW 12.7 mph 19.6 mph N/A   Clear
6:15 AM 39.4 °F 31.8 °F 33.8 °F 80% 30.25 in 10.0 mi NNW 12.7 mph 19.6 mph N/A   Clear
6:35 AM 39.2 °F 32.5 °F 33.6 °F 80% 30.25 in 10.0 mi NNW 10.4 mph 19.6 mph N/A   Clear
6:55 AM 39.2 °F 32.0 °F 33.3 °F 79% 30.26 in 10.0 mi NNW 11.5 mph 17.3 mph N/A   Clear
7:15 AM 39.6 °F 32.5 °F 33.4 °F 79% 30.26 in 10.0 mi NW 11.5 mph 19.6 mph N/A   Clear
7:35 AM 40.1 °F 32.7 °F 33.8 °F 78% 30.26 in 10.0 mi NW 12.7 mph - N/A   Clear
7:55 AM 41.4 °F 34.7 °F 34.3 °F 76% 30.27 in 10.0 mi NW 11.5 mph 19.6 mph N/A   Clear
8:15 AM 43.0 °F 36.0 °F 34.2 °F 71% 30.26 in 10.0 mi NNW 13.8 mph 18.4 mph N/A   Clear
8:35 AM 44.8 °F 39.0 °F 34.0 °F 66% 30.26 in 10.0 mi NNW 11.5 mph 19.6 mph N/A   Clear
8:55 AM 46.4 °F 39.8 °F 34.0 °F 62% 30.25 in 10.0 mi NNW 16.1 mph 20.7 mph N/A   Clear
9:15 AM 47.7 °F - 33.1 °F 57% 30.25 in 10.0 mi North 17.3 mph 23.0 mph N/A   Clear
9:35 AM 49.3 °F - 33.6 °F 55% 30.25 in 10.0 mi NNW 17.3 mph 25.3 mph N/A   Clear
9:55 AM 50.5 °F - 34.2 °F 53% 30.25 in 10.0 mi NNW 16.1 mph 23.0 mph N/A   Clear
10:15 AM 51.4 °F - 32.9 °F 49% 30.25 in 10.0 mi NW 19.6 mph 27.6 mph N/A   Clear
10:35 AM 53.2 °F - 33.4 °F 47% 30.24 in 10.0 mi NNW 17.3 mph 24.2 mph N/A   Clear
10:55 AM 54.0 °F - 30.7 °F 41% 30.24 in 10.0 mi NNW 19.6 mph 28.8 mph N/A   Clear
11:15 AM 56.1 °F - 30.7 °F 38% 30.23 in 10.0 mi NNW 19.6 mph 27.6 mph N/A   Clear
11:35 AM 56.7 °F - 31.1 °F 38% 30.23 in 10.0 mi NNW 18.4 mph 27.6 mph N/A   Clear
11:55 AM 57.9 °F - 30.9 °F 36% 30.22 in 10.0 mi NNW 17.3 mph - N/A   Clear
12:15 PM 60.1 °F - 31.3 °F 34% 30.22 in 10.0 mi NNW 20.7 mph 29.9 mph N/A   Clear
12:35 PM 59.4 °F - 30.7 °F 34% 30.20 in 10.0 mi NNW 13.8 mph 33.4 mph N/A   Clear
12:55 PM 60.4 °F - 29.7 °F 31% 30.19 in 10.0 mi NW 24.2 mph 29.9 mph N/A   Clear
1:15 PM 62.1 °F - 29.8 °F 30% 30.18 in 10.0 mi NNW 17.3 mph 29.9 mph N/A   Clear
1:35 PM 62.4 °F - 26.8 °F 26% 30.17 in 10.0 mi NW 20.7 mph 29.9 mph N/A   Clear
1:55 PM 63.5 °F - 26.1 °F 24% 30.16 in 10.0 mi NW 23.0 mph 31.1 mph N/A   Clear
2:15 PM 63.9 °F - 27.5 °F 25% 30.15 in 10.0 mi NNW 15.0 mph 27.6 mph N/A   Clear
2:35 PM 63.9 °F - 27.5 °F 25% 30.14 in 10.0 mi NNW 12.7 mph 26.5 mph N/A   Clear
2:55 PM 63.5 °F - 27.9 °F 26% 30.14 in 10.0 mi NNW 17.3 mph 29.9 mph N/A   Scattered Clouds
3:15 PM 64.2 °F - 25.7 °F 23% 30.12 in 10.0 mi NNW 18.4 mph 31.1 mph N/A   Scattered Clouds
3:35 PM 65.8 °F - 28.0 °F 24% 30.11 in 10.0 mi WNW 17.3 mph 25.3 mph N/A   Scattered Clouds
3:55 PM 65.1 °F - 27.7 °F 24% 30.09 in 10.0 mi NW 17.3 mph 26.5 mph N/A   Scattered Clouds
4:15 PM 65.7 °F - 27.1 °F 23% 30.09 in 10.0 mi NW 16.1 mph 26.5 mph N/A   Scattered Clouds
4:35 PM 65.7 °F - 27.7 °F 24% 30.08 in 10.0 mi NNW 10.4 mph 25.3 mph N/A   Scattered Clouds
4:55 PM 65.5 °F - 26.4 °F 23% 30.07 in 10.0 mi NNW 19.6 mph 29.9 mph N/A   Scattered Clouds
5:15 PM 65.1 °F - 27.3 °F 24% 30.07 in 10.0 mi NW 17.3 mph 27.6 mph N/A   Clear
5:35 PM 64.4 °F - 27.3 °F 25% 30.07 in 10.0 mi NNW 16.1 mph 23.0 mph N/A   Scattered Clouds
5:55 PM 65.3 °F - 27.1 °F 24% 30.06 in 10.0 mi NW 20.7 mph 26.5 mph N/A   Scattered Clouds
6:15 PM 64.4 °F - 26.1 °F 23% 30.05 in 10.0 mi NW 15.0 mph 28.8 mph N/A   Scattered Clouds
6:35 PM 63.9 °F - 26.8 °F 25% 30.05 in 10.0 mi NW 13.8 mph 20.7 mph N/A   Scattered Clouds
6:55 PM 63.5 °F - 26.2 °F 24% 30.05 in 10.0 mi NNW 11.5 mph 19.6 mph N/A   Scattered Clouds
7:15 PM 62.8 °F - 27.7 °F 27% 30.05 in 10.0 mi NNW 11.5 mph - N/A   Clear
7:35 PM 61.9 °F - 27.5 °F 27% 30.04 in 10.0 mi NNW 8.1 mph - N/A   Clear
7:55 PM 60.4 °F - 27.7 °F 29% 30.04 in 10.0 mi NNW 5.8 mph - N/A   Clear
8:15 PM 59.0 °F - 28.4 °F 31% 30.04 in 10.0 mi NNW 3.5 mph - N/A   Clear
8:35 PM 57.4 °F - 32.4 °F 39% 30.04 in 10.0 mi Calm Calm - N/A   Clear
8:55 PM 56.8 °F - 32.0 °F 39% 30.04 in 10.0 mi Calm Calm - N/A   Clear
9:15 PM 55.8 °F - 32.0 °F 41% 30.04 in 10.0 mi Calm Calm - N/A   Clear
9:35 PM 55.9 °F - 30.0 °F 37% 30.04 in 10.0 mi Calm Calm - N/A   Clear
9:55 PM 54.1 °F - 30.4 °F 40% 30.04 in 10.0 mi Calm Calm - N/A   Clear
10:15 PM 54.9 °F - 30.0 °F 39% 30.04 in 10.0 mi Calm Calm - N/A   Clear
10:35 PM 50.2 °F - 32.7 °F 51% 30.04 in 10.0 mi Calm Calm - N/A   Clear
10:55 PM 52.7 °F - 32.0 °F 45% 30.04 in 10.0 mi Calm Calm - N/A   Clear
11:15 PM 49.1 °F - 33.1 °F 54% 30.03 in 10.0 mi Calm Calm - N/A   Clear
11:35 PM 51.4 °F - 31.3 °F 46% 30.03 in 10.0 mi SSE 3.5 mph - N/A   Clear
11:55 PM 49.5 °F - 32.2 °F 51% 30.02 in 10.0 mi South 8.1 mph - N/A   Clear